Time,TemperatureF,DewpointF,PressureIn,WindDirection,WindDirectionDegrees,WindSpeedMPH,WindSpeedGustMPH,Humidity,HourlyPrecipIn,Conditions,Clouds,dailyrainin,SoftwareType,DateUTC
2013-02-25 00:11:00,64.8,63.0,29.88,ESE,103,4.0,-999.0,94,-99.99,,,0.00,weatherlink.com 1.10,2013-02-25 05:11:00,
2013-02-25 00:26:00,64.7,63.0,29.87,ESE,116,2.0,-999.0,94,-99.99,,,0.00,weatherlink.com 1.10,2013-02-25 05:26:00,
2013-02-25 00:41:00,64.7,63.0,29.87,ESE,113,2.0,-999.0,94,-99.99,,,0.00,weatherlink.com 1.10,2013-02-25 05:41:00,
2013-02-25 00:56:00,64.8,63.0,29.87,ESE,102,4.0,-999.0,94,-99.99,,,0.00,weatherlink.com 1.10,2013-02-25 05:56:00,
2013-02-25 01:11:00,64.8,63.0,29.86,ESE,105,1.0,-999.0,94,-99.99,,,0.00,weatherlink.com 1.10,2013-02-25 06:11:00,
2013-02-25 01:26:00,64.7,63.0,29.87,ESE,111,1.0,-999.0,94,-99.99,,,0.00,weatherlink.com 1.10,2013-02-25 06:26:00,
2013-02-25 01:41:00,64.8,63.0,29.86,SE,134,2.0,-999.0,95,-99.99,,,0.00,weatherlink.com 1.10,2013-02-25 06:41:00,
2013-02-25 01:56:00,64.7,63.0,29.85,SE,146,0.0,-999.0,94,-99.99,,,0.00,weatherlink.com 1.10,2013-02-25 06:56:00,
2013-02-25 02:11:00,64.7,63.0,29.84,SSE,159,1.0,-999.0,95,-99.99,,,0.00,weatherlink.com 1.10,2013-02-25 07:11:00,
2013-02-25 02:26:00,64.7,63.0,29.83,South,182,4.0,-999.0,95,-99.99,,,0.00,weatherlink.com 1.10,2013-02-25 07:26:00,
2013-02-25 02:41:00,64.8,63.0,29.83,South,173,1.0,-999.0,95,-99.99,,,0.00,weatherlink.com 1.10,2013-02-25 07:41:00,
2013-02-25 02:56:00,64.8,63.0,29.84,South,177,1.0,-999.0,95,-99.99,,,0.00,weatherlink.com 1.10,2013-02-25 07:56:00,
2013-02-25 03:11:00,64.8,63.0,29.82,South,177,2.0,-999.0,95,-99.99,,,0.00,weatherlink.com 1.10,2013-02-25 08:11:00,
2013-02-25 03:26:00,65.1,64.0,29.81,ESE,109,2.0,-999.0,95,-99.99,,,0.00,weatherlink.com 1.10,2013-02-25 08:26:00,
2013-02-25 03:41:00,65.0,64.0,29.82,ESE,109,0.0,-999.0,95,-99.99,,,0.00,weatherlink.com 1.10,2013-02-25 08:41:00,
2013-02-25 03:56:00,65.2,64.0,29.81,East,84,1.0,-999.0,95,-99.99,,,0.00,weatherlink.com 1.10,2013-02-25 08:56:00,
2013-02-25 04:11:00,65.1,64.0,29.80,ENE,70,1.0,-999.0,95,-99.99,,,0.00,weatherlink.com 1.10,2013-02-25 09:11:00,
2013-02-25 04:26:00,65.0,64.0,29.80,ESE,103,2.0,-999.0,95,-99.99,,,0.00,weatherlink.com 1.10,2013-02-25 09:26:00,
2013-02-25 04:41:00,65.0,64.0,29.80,ESE,102,0.0,-999.0,95,-99.99,,,0.00,weatherlink.com 1.10,2013-02-25 09:41:00,
2013-02-25 04:56:00,-999.0,-99.9,29.81,North,-999,-999.0,-999.0,-999,-99.99,,,0.00,weatherlink.com 1.10,2013-02-25 09:56:00,
2013-02-25 05:12:00,-999.0,-99.9,29.81,North,-999,-999.0,-999.0,-999,-99.99,,,0.00,weatherlink.com 1.10,2013-02-25 10:12:00,
2013-02-25 05:27:00,-999.0,-99.9,29.81,North,-999,-999.0,-999.0,-999,-99.99,,,0.00,weatherlink.com 1.10,2013-02-25 10:27:00,
2013-02-25 05:42:00,-999.0,-99.9,29.81,North,-999,-999.0,-999.0,-999,-99.99,,,0.00,weatherlink.com 1.10,2013-02-25 10:42:00,
2013-02-25 05:57:00,-999.0,-99.9,29.81,North,-999,-999.0,-999.0,-999,-99.99,,,0.00,weatherlink.com 1.10,2013-02-25 10:57:00,
2013-02-25 06:12:00,-999.0,-99.9,29.81,North,-999,-999.0,-999.0,-999,-99.99,,,0.00,weatherlink.com 1.10,2013-02-25 11:12:00,
2013-02-25 06:27:00,-999.0,-99.9,29.81,North,-999,-999.0,-999.0,-999,-99.99,,,0.00,weatherlink.com 1.10,2013-02-25 11:27:00,
2013-02-25 06:42:00,-999.0,-99.9,29.81,North,-999,-999.0,-999.0,-999,-99.99,,,0.00,weatherlink.com 1.10,2013-02-25 11:42:00,
2013-02-25 06:57:00,-999.0,-99.9,29.82,North,-999,-999.0,-999.0,-999,-99.99,,,0.00,weatherlink.com 1.10,2013-02-25 11:57:00,
2013-02-25 07:13:00,-999.0,-99.9,29.83,North,-999,-999.0,-999.0,-999,-99.99,,,0.00,weatherlink.com 1.10,2013-02-25 12:13:00,
2013-02-25 07:30:00,-999.0,-99.9,29.84,North,-999,-999.0,-999.0,-999,-99.99,,,0.00,weatherlink.com 1.10,2013-02-25 12:30:00,
2013-02-25 07:47:00,-999.0,-99.9,29.83,North,-999,-999.0,-999.0,-999,-99.99,,,0.00,weatherlink.com 1.10,2013-02-25 12:47:00,
2013-02-25 08:05:00,-999.0,-99.9,29.83,North,-999,-999.0,-999.0,-999,-99.99,,,0.00,weatherlink.com 1.10,2013-02-25 13:05:00,
2013-02-25 08:21:00,67.4,66.0,29.85,ESE,104,1.0,-999.0,96,-99.99,,,0.01,weatherlink.com 1.10,2013-02-25 13:21:00,
2013-02-25 08:37:00,68.8,67.0,29.85,SSE,161,0.0,-999.0,95,-99.99,,,0.01,weatherlink.com 1.10,2013-02-25 13:37:00,
2013-02-25 08:54:00,70.9,70.0,29.85,WSW,237,2.0,-999.0,95,-99.99,,,0.01,weatherlink.com 1.10,2013-02-25 13:54:00,
2013-02-25 09:10:00,72.8,70.0,29.85,SSW,207,1.0,-999.0,92,-99.99,,,0.01,weatherlink.com 1.10,2013-02-25 14:10:00,
2013-02-25 09:26:00,73.4,70.0,29.85,SSW,202,3.0,-999.0,89,-99.99,,,0.01,weatherlink.com 1.10,2013-02-25 14:26:00,
2013-02-25 09:44:00,74.2,71.0,29.84,SSW,207,0.0,-999.0,88,-99.99,,,0.01,weatherlink.com 1.10,2013-02-25 14:44:00,
2013-02-25 10:00:00,75.4,71.0,29.84,West,264,2.0,-999.0,85,-99.99,,,0.01,weatherlink.com 1.10,2013-02-25 15:00:00,
2013-02-25 10:16:00,76.4,71.0,29.83,West,277,2.0,-999.0,83,-99.99,,,0.01,weatherlink.com 1.10,2013-02-25 15:16:00,
2013-02-25 10:33:00,77.6,71.0,29.83,South,182,1.0,-999.0,80,-99.99,,,0.01,weatherlink.com 1.10,2013-02-25 15:33:00,
2013-02-25 11:06:00,78.9,70.0,29.83,WSW,239,0.0,-999.0,73,-99.99,,,0.01,weatherlink.com 1.10,2013-02-25 16:06:00,
2013-02-25 11:22:00,78.8,68.0,29.83,West,259,9.0,-999.0,69,-99.99,,,0.01,weatherlink.com 1.10,2013-02-25 16:22:00,
2013-02-25 11:39:00,80.3,67.0,29.82,SSW,202,1.0,-999.0,64,-99.99,,,0.01,weatherlink.com 1.10,2013-02-25 16:39:00,
2013-02-25 11:55:00,82.1,67.0,29.82,WNW,302,2.0,-999.0,60,-99.99,,,0.01,weatherlink.com 1.10,2013-02-25 16:55:00,
2013-02-25 12:11:00,82.2,66.0,29.81,West,265,6.0,-999.0,59,-99.99,,,0.01,weatherlink.com 1.10,2013-02-25 17:11:00,
2013-02-25 12:28:00,81.7,65.0,29.80,WSW,252,5.0,-999.0,57,-99.99,,,0.01,weatherlink.com 1.10,2013-02-25 17:28:00,
2013-02-25 12:45:00,81.4,65.0,29.79,WSW,254,11.0,-999.0,58,-99.99,,,0.01,weatherlink.com 1.10,2013-02-25 17:45:00,
2013-02-25 13:01:00,82.0,66.0,29.78,West,267,7.0,-999.0,59,-99.99,,,0.01,weatherlink.com 1.10,2013-02-25 18:01:00,
2013-02-25 13:17:00,82.0,66.0,29.77,West,265,3.0,-999.0,58,-99.99,,,0.01,weatherlink.com 1.10,2013-02-25 18:17:00,
2013-02-25 13:33:00,81.2,64.0,29.77,WNW,283,9.0,-999.0,57,-99.99,,,0.01,weatherlink.com 1.10,2013-02-25 18:33:00,
2013-02-25 13:51:00,81.2,64.0,29.76,West,262,3.0,-999.0,57,-99.99,,,0.01,weatherlink.com 1.10,2013-02-25 18:51:00,
2013-02-25 14:07:00,82.7,65.0,29.75,WSW,242,9.0,-999.0,55,-99.99,,,0.01,weatherlink.com 1.10,2013-02-25 19:07:00,
2013-02-25 14:24:00,82.4,65.0,29.75,WSW,243,4.0,-999.0,55,-99.99,,,0.01,weatherlink.com 1.10,2013-02-25 19:24:00,
2013-02-25 14:40:00,83.5,65.0,29.75,WNW,296,13.0,-999.0,53,-99.99,,,0.01,weatherlink.com 1.10,2013-02-25 19:40:00,
2013-02-25 14:57:00,84.1,65.0,29.75,West,281,4.0,-999.0,53,-99.99,,,0.01,weatherlink.com 1.10,2013-02-25 19:57:00,
2013-02-25 15:13:00,83.5,63.0,29.74,West,268,9.0,-999.0,51,-99.99,,,0.01,weatherlink.com 1.10,2013-02-25 20:13:00,
2013-02-25 15:29:00,83.7,64.0,29.74,West,276,10.0,-999.0,51,-99.99,,,0.03,weatherlink.com 1.10,2013-02-25 20:29:00,
2013-02-25 15:46:00,84.6,63.0,29.74,West,263,2.0,-999.0,49,-99.99,,,0.04,weatherlink.com 1.10,2013-02-25 20:46:00,
2013-02-25 16:02:00,84.4,63.0,29.73,West,277,5.0,-999.0,49,-99.99,,,0.06,weatherlink.com 1.10,2013-02-25 21:02:00,
2013-02-25 16:18:00,83.6,62.0,29.73,WSW,256,10.0,-999.0,48,-99.99,,,0.07,weatherlink.com 1.10,2013-02-25 21:18:00,
2013-02-25 16:35:00,83.9,62.0,29.73,WSW,249,1.0,-999.0,48,-99.99,,,0.09,weatherlink.com 1.10,2013-02-25 21:35:00,
2013-02-25 16:51:00,83.7,63.0,29.72,SW,232,2.0,-999.0,49,-99.99,,,0.10,weatherlink.com 1.10,2013-02-25 21:51:00,
2013-02-25 17:08:00,83.1,63.0,29.71,West,267,2.0,-999.0,50,-99.99,,,0.11,weatherlink.com 1.10,2013-02-25 22:08:00,
2013-02-25 17:24:00,82.6,64.0,29.71,SW,232,5.0,-999.0,53,-99.99,,,0.13,weatherlink.com 1.10,2013-02-25 22:24:00,
2013-02-25 17:40:00,76.4,67.0,29.76,West,281,20.0,-999.0,73,-99.99,,,0.14,weatherlink.com 1.10,2013-02-25 22:40:00,
2013-02-25 17:57:00,70.2,66.0,29.74,SSW,200,1.0,-999.0,87,-99.99,,,0.14,weatherlink.com 1.10,2013-02-25 22:57:00,
2013-02-25 18:14:00,69.7,67.0,29.74,SSW,194,2.0,-999.0,90,-99.99,,,0.14,weatherlink.com 1.10,2013-02-25 23:14:00,
2013-02-25 18:29:00,69.9,67.0,29.74,ESE,103,1.0,-999.0,91,-99.99,,,0.15,weatherlink.com 1.10,2013-02-25 23:29:00,
2013-02-25 18:46:00,69.8,67.0,29.74,SE,141,2.0,-999.0,92,-99.99,,,0.15,weatherlink.com 1.10,2013-02-25 23:46:00,
2013-02-25 19:02:00,70.0,68.0,29.75,ESE,123,1.0,-999.0,93,-99.99,,,0.15,weatherlink.com 1.10,2013-02-26 00:02:00,
2013-02-25 19:18:00,69.9,68.0,29.74,ESE,114,0.0,-999.0,93,-99.99,,,0.15,weatherlink.com 1.10,2013-02-26 00:18:00,
2013-02-25 19:35:00,69.6,68.0,29.75,ESE,121,0.0,-999.0,93,-99.99,,,0.15,weatherlink.com 1.10,2013-02-26 00:35:00,
2013-02-25 19:51:00,69.7,68.0,29.76,ESE,121,0.0,-999.0,93,-99.99,,,0.15,weatherlink.com 1.10,2013-02-26 00:51:00,
2013-02-25 20:08:00,70.3,69.0,29.76,ESE,102,4.0,-999.0,94,-99.99,,,0.15,weatherlink.com 1.10,2013-02-26 01:08:00,
2013-02-25 20:24:00,69.9,68.0,29.76,ESE,115,4.0,-999.0,93,-99.99,,,0.15,weatherlink.com 1.10,2013-02-26 01:24:00,
2013-02-25 20:41:00,69.7,68.0,29.75,SSE,167,0.0,-999.0,93,-99.99,,,0.16,weatherlink.com 1.10,2013-02-26 01:41:00,
2013-02-25 20:57:00,69.5,68.0,29.76,South,173,1.0,-999.0,93,-99.99,,,0.16,weatherlink.com 1.10,2013-02-26 01:57:00,
2013-02-25 21:14:00,69.3,67.0,29.76,South,182,0.0,-999.0,93,-99.99,,,0.16,weatherlink.com 1.10,2013-02-26 02:14:00,
2013-02-25 21:31:00,69.1,67.0,29.76,South,180,2.0,-999.0,93,-99.99,,,0.16,weatherlink.com 1.10,2013-02-26 02:31:00,
2013-02-25 21:47:00,69.3,67.0,29.76,SE,146,0.0,-999.0,93,-99.99,,,0.16,weatherlink.com 1.10,2013-02-26 02:47:00,
2013-02-25 22:03:00,69.1,67.0,29.75,SE,144,0.0,-999.0,93,-99.99,,,0.16,weatherlink.com 1.10,2013-02-26 03:03:00,
2013-02-25 22:20:00,68.8,67.0,29.74,South,186,1.0,-999.0,93,-99.99,,,0.16,weatherlink.com 1.10,2013-02-26 03:20:00,
2013-02-25 22:36:00,68.6,67.0,29.74,SW,216,0.0,-999.0,93,-99.99,,,0.16,weatherlink.com 1.10,2013-02-26 03:36:00,
2013-02-25 22:53:00,68.5,67.0,29.75,SSW,202,0.0,-999.0,93,-99.99,,,0.16,weatherlink.com 1.10,2013-02-26 03:53:00,
2013-02-25 23:08:00,68.5,67.0,29.74,SSW,202,1.0,-999.0,93,-99.99,,,0.16,weatherlink.com 1.10,2013-02-26 04:08:00,
2013-02-25 23:23:00,68.5,67.0,29.75,WSW,238,2.0,-999.0,94,-99.99,,,0.16,weatherlink.com 1.10,2013-02-26 04:23:00,
2013-02-25 23:38:00,68.4,67.0,29.75,West,264,2.0,-999.0,94,-99.99,,,0.16,weatherlink.com 1.10,2013-02-26 04:38:00,
2013-02-25 23:53:00,68.4,66.0,29.74,SSW,210,3.0,-999.0,93,-99.99,,,0.16,weatherlink.com 1.10,2013-02-26 04:53:00,